This is the latest recevied weather packets stored in our database for station/object 9A7DI-13. If no packets are shown the sender has not sent any weather packets the latest 10 day(s).
| Time | Temp. | Humidity | Pressure | Rain* | Wind** | Luminosity | Snow |
|---|---|---|---|---|---|---|---|
| 1777794433 | 21.67° C | 39% | 1029.2 hPa | - | - | - | - |
| 1777793833 | 21.11° C | 41% | 1029.2 hPa | - | - | - | - |
| 1777793233 | 19.44° C | 41% | 1029.2 hPa | - | - | - | - |
| 1777792633 | 17.78° C | 45% | 1029.1 hPa | - | - | - | - |
| 1777792033 | 18.33° C | 42% | 1029 hPa | - | - | - | - |
| 1777791433 | 16.67° C | 49% | 1029.1 hPa | - | - | - | - |
| 1777790833 | 16.67° C | 51% | 1029.1 hPa | - | - | - | - |
| 1777790233 | 16.67° C | 51% | 1029 hPa | - | - | - | - |
| 1777789633 | 14.44° C | 56% | 1029.2 hPa | - | - | - | - |
| 1777789033 | 13.89° C | 59% | 1029.1 hPa | - | - | - | - |
| 1777788433 | 12.22° C | 58% | 1029.1 hPa | - | - | - | - |
| 1777787833 | 12.78° C | 61% | 1029 hPa | - | - | - | - |
| 1777787233 | 12.22° C | 65% | 1028.9 hPa | - | - | - | - |
| 1777786633 | 11.67° C | 66% | 1028.9 hPa | - | - | - | - |
| 1777786033 | 10.56° C | 68% | 1028.8 hPa | - | - | - | - |
| 1777785433 | 8.89° C | 73% | 1029 hPa | - | - | - | - |
| 1777784833 | 7.78° C | 75% | 1028.8 hPa | - | - | - | - |
| 1777784233 | 7.22° C | 77% | 1028.9 hPa | - | - | - | - |
| 1777783633 | 6.11° C | 80% | 1028.9 hPa | - | - | - | - |
| 1777783033 | 6.11° C | 80% | 1028.8 hPa | - | - | - | - |
| 1777782433 | 6.11° C | 81% | 1028.8 hPa | - | - | - | - |
| 1777781833 | 5.56° C | 80% | 1028.9 hPa | - | - | - | - |
| 1777781233 | 6.11° C | 80% | 1028.8 hPa | - | - | - | - |
| 1777780633 | 6.11° C | 79% | 1028.7 hPa | - | - | - | - |
| 1777780033 | 6.11° C | 77% | 1028.7 hPa | - | - | - | - |
* Rain since midnight (hover to see other rain measurements)
** Current wind speed in m/s (hover to see current wind gust speed)